| time (UTC) | temp C | wind direction | speed KPH | gust KPH | rain 1hr cm | rain 24hr cm | rain mn cm | humidity % | barometer mb |
| 20260906144505 | 21 | 101 | 1.6 | 14.5 | 0.00 | 0.00 | 0.00 | 92 | 1018.4 |
| 20260906143828 | 21 | 213 | 0.0 | 8.0 | 0.00 | 0.00 | 0.00 | 93 | 1018.2 |
| 20260906143103 | 21 | 202 | 1.6 | 8.0 | 0.00 | 0.00 | 0.00 | 94 | 1018.1 |
| 20260906141734 | 21 | 156 | 0.0 | 9.7 | 0.00 | 0.00 | 0.00 | 94 | 1018.1 |
| 20260906141622 | 20 | 105 | 1.6 | 11.3 | 0.00 | 0.00 | 0.00 | 94 | 1018.2 |
| 20260906140749 | 20 | 229 | 0.0 | 6.4 | 0.00 | 0.00 | 0.00 | 95 | 1018.2 |
| 20260906135809 | 20 | 171 | 0.0 | 6.4 | 0.00 | 0.00 | 0.00 | 95 | 1018.1 |
| 20260906134740 | 20 | 162 | 0.0 | 8.0 | 0.00 | 0.00 | 0.00 | 95 | 1018.1 |
| 20260906134503 | 20 | 133 | 0.0 | 11.3 | 0.00 | 0.00 | 0.00 | 96 | 1018.3 |
| 20260906133111 | 20 | 214 | 1.6 | 6.4 | 0.00 | 0.00 | 0.00 | 96 | 1018.2 |
| 20260906132628 | 20 | 66 | 0.0 | 11.3 | 0.00 | 0.00 | 0.00 | 96 | 1018.2 |
| 20260906131555 | 20 | 126 | 0.0 | 11.3 | 0.00 | 0.00 | 0.00 | 96 | 1018.1 |
| 20260906131502 | 20 | 123 | 3.2 | 12.9 | 0.00 | 0.00 | 0.00 | 96 | 1018.1 |
| 20260906130602 | 20 | 137 | 1.6 | 8.0 | 0.00 | 0.00 | 0.00 | 96 | 1018.0 |
| 20260906130007 | 19 | 121 | 1.6 | 8.0 | 0.00 | 0.00 | 0.00 | 96 | 1018.2 |
| 20260906125554 | 20 | 115 | 0.0 | 6.4 | 0.00 | 0.00 | 0.00 | 96 | 1018.1 |
| 20260906124606 | 19 | 140 | 0.0 | 4.8 | 0.00 | 0.00 | 0.00 | 96 | 1017.9 |
| 20260906123002 | 19 | 132 | 0.0 | 3.2 | 0.00 | 0.00 | 0.00 | 96 | 1017.8 |
| 20260906122338 | 20 | 132 | 0.0 | 0.0 | 0.00 | 0.00 | 0.00 | 96 | 1017.8 |
| 20260906121615 | 19 | 167 | 0.0 | 4.8 | 0.00 | 0.00 | 0.00 | 96 | 1017.7 |
| 20260906121345 | 20 | 192 | 0.0 | 4.8 | 0.00 | 0.00 | 0.00 | 96 | 1017.6 |
| 20260906120323 | 20 | 127 | 0.0 | 4.8 | 0.00 | 0.00 | 0.00 | 96 | 1017.6 |
| 20260906120120 | 19 | 132 | 1.6 | 8.0 | 0.00 | 0.00 | 0.00 | 96 | 1017.7 |
| 20260906115256 | 20 | 127 | 1.6 | 6.4 | 0.00 | 0.00 | 0.00 | 96 | 1017.6 |
| 20260906114233 | 20 | 121 | 0.0 | 3.2 | 0.00 | 0.00 | 0.00 | 95 | 1017.4 |
| 20260906113223 | 20 | 128 | 0.0 | 4.8 | 0.00 | 0.00 | 0.00 | 95 | 1017.4 |
| 20260906113004 | 19 | 128 | 1.6 | 6.4 | 0.00 | 0.00 | 0.00 | 95 | 1017.4 |
| 20260906111603 | 20 | 107 | 0.0 | 6.4 | 0.00 | 0.00 | 0.00 | 95 | 1017.5 |
| 20260906111034 | 20 | 117 | 0.0 | 4.8 | 0.00 | 0.00 | 0.00 | 95 | 1017.4 |
| 20260906110103 | 20 | 143 | 0.0 | 11.3 | 0.00 | 0.00 | 0.00 | 95 | 1017.4 |
| 20260906110005 | 20 | 143 | 0.0 | 9.7 | 0.00 | 0.00 | 0.00 | 95 | 1017.3 |
| 20260906104955 | 20 | 109 | 0.0 | 8.0 | 0.00 | 0.00 | 0.00 | 95 | 1017.0 |
| 20260906104504 | 20 | 135 | 3.2 | 8.0 | 0.00 | 0.00 | 0.00 | 95 | 1017.0 |
| 20260906103932 | 20 | 130 | 0.0 | 4.8 | 0.00 | 0.00 | 0.00 | 95 | 1016.8 |
| 20260906103109 | 20 | 132 | 1.6 | 6.4 | 0.00 | 0.00 | 0.00 | 95 | 1016.7 |
| 20260906101832 | 20 | 137 | 0.0 | 3.2 | 0.00 | 0.00 | 0.00 | 95 | 1016.6 |
| 20260906101503 | 20 | 133 | 0.0 | 4.8 | 0.00 | 0.00 | 0.00 | 95 | 1016.6 |
| 20260906100809 | 20 | 132 | 0.0 | 4.8 | 0.00 | 0.00 | 0.00 | 95 | 1016.6 |
| 20260906100004 | 20 | 136 | 1.6 | 8.0 | 0.00 | 0.00 | 0.00 | 94 | 1016.5 |
| 20260906095820 | 20 | 119 | 1.6 | 8.0 | 0.00 | 0.00 | 0.00 | 94 | 1016.4 |
| 20260906094828 | 20 | 127 | 0.0 | 8.0 | 0.00 | 0.00 | 0.00 | 94 | 1016.4 |
| 20260906094607 | 20 | 138 | 0.0 | 8.0 | 0.00 | 0.00 | 0.00 | 94 | 1016.4 |
| 20260906093808 | 20 | 122 | 0.0 | 8.0 | 0.00 | 0.00 | 0.00 | 94 | 1016.3 |
| 20260906093004 | 20 | 123 | 1.6 | 8.0 | 0.00 | 0.00 | 0.00 | 94 | 1016.2 |
| 20260906091636 | 20 | 128 | 1.6 | 14.5 | 0.00 | 0.00 | 0.00 | 94 | 1016.0 |
| 20260906091503 | 20 | 127 | 3.2 | 11.3 | 0.00 | 0.00 | 0.00 | 94 | 1016.0 |
| 20260906090640 | 20 | 100 | 1.6 | 16.1 | 0.00 | 0.00 | 0.00 | 94 | 1015.7 |
| 20260906090004 | 20 | 136 | 1.6 | 9.7 | 0.00 | 0.00 | 0.00 | 94 | 1015.8 |
| 20260906084534 | 20 | 140 | 3.2 | 14.5 | 0.00 | 0.00 | 0.00 | 93 | 1015.7 |
| 20260906084507 | 20 | 130 | 4.8 | 16.1 | 0.00 | 0.00 | 0.00 | 93 | 1015.8 |
| 20260906083559 | 20 | 134 | 0.0 | 1.6 | 0.00 | 0.00 | 0.00 | 93 | 1015.9 |
| 20260906083105 | 20 | 148 | 1.6 | 6.4 | 0.00 | 0.00 | 0.00 | 93 | 1016.1 |
| 20260906081605 | 20 | 119 | 1.6 | 8.0 | 0.00 | 0.00 | 0.00 | 93 | 1016.3 |
| 20260906081401 | 21 | 117 | 0.0 | 9.7 | 0.00 | 0.00 | 0.00 | 93 | 1016.3 |
| 20260906080328 | 21 | 149 | 1.6 | 9.7 | 0.00 | 0.00 | 0.00 | 93 | 1016.2 |
| 20260906080103 | 20 | 144 | 3.2 | 11.3 | 0.00 | 0.00 | 0.00 | 93 | 1016.2 |
| 20260906075312 | 21 | 138 | 1.6 | 4.8 | 0.00 | 0.00 | 0.00 | 93 | 1016.3 |
| 20260906074505 | 20 | 142 | 1.6 | 8.0 | 0.00 | 0.00 | 0.00 | 93 | 1016.4 |
| 20260906074243 | 21 | 139 | 1.6 | 6.4 | 0.00 | 0.00 | 0.00 | 93 | 1016.2 |
| 20260906073226 | 21 | 134 | 1.6 | 8.0 | 0.00 | 0.00 | 0.00 | 93 | 1016.2 |
| 20260906073103 | 20 | 154 | 3.2 | 8.0 | 0.00 | 0.00 | 0.00 | 93 | 1016.4 |
| 20260906072204 | 21 | 125 | 0.0 | 8.0 | 0.00 | 0.00 | 0.00 | 93 | 1016.4 |
| 20260906071605 | 20 | 121 | 0.0 | 4.8 | 0.00 | 0.00 | 0.00 | 93 | 1016.4 |
| 20260906071147 | 21 | 148 | 0.0 | 4.8 | 0.00 | 0.00 | 0.00 | 93 | 1016.3 |
| 20260906070139 | 21 | 133 | 0.0 | 8.0 | 0.00 | 0.00 | 0.00 | 92 | 1016.4 |
| 20260906065204 | 21 | 120 | 1.6 | 8.0 | 0.00 | 0.00 | 0.00 | 92 | 1016.4 |
| 20260906064504 | 20 | 113 | 1.6 | 6.4 | 0.00 | 0.00 | 0.00 | 92 | 1016.5 |
| 20260906064228 | 21 | 115 | 1.6 | 4.8 | 0.00 | 0.00 | 0.00 | 92 | 1016.4 |
| 20260906063230 | 21 | 136 | 1.6 | 6.4 | 0.00 | 0.00 | 0.00 | 91 | 1016.6 |
| 20260906063103 | 20 | 126 | 1.6 | 9.7 | 0.00 | 0.00 | 0.00 | 91 | 1016.6 |
| 20260906062210 | 21 | 140 | 0.0 | 6.4 | 0.00 | 0.00 | 0.00 | 91 | 1016.5 |
| 20260906061603 | 21 | 105 | 0.0 | 4.8 | 0.00 | 0.00 | 0.00 | 91 | 1016.6 |
| 20260906061154 | 21 | 121 | 0.0 | 6.4 | 0.00 | 0.00 | 0.00 | 91 | 1016.6 |
| 20260906060203 | 21 | 140 | 0.0 | 4.8 | 0.00 | 0.00 | 0.00 | 90 | 1016.5 |
| 20260906060135 | 21 | 127 | 0.0 | 4.8 | 0.00 | 0.00 | 0.00 | 90 | 1016.6 |
| 20260906055144 | 21 | 101 | 0.0 | 4.8 | 0.00 | 0.00 | 0.00 | 90 | 1016.6 |
| 20260906054502 | 21 | 113 | 0.0 | 4.8 | 0.00 | 0.00 | 0.00 | 90 | 1016.7 |
| 20260906054151 | 21 | 92 | 0.0 | 3.2 | 0.00 | 0.00 | 0.00 | 90 | 1016.7 |
| 20260906053102 | 21 | 107 | 0.0 | 4.8 | 0.00 | 0.00 | 0.00 | 89 | 1016.6 |
| 20260906052058 | 22 | 111 | 0.0 | 1.6 | 0.00 | 0.00 | 0.00 | 89 | 1016.7 |
| 20260906051502 | 21 | 96 | 0.0 | 3.2 | 0.00 | 0.00 | 0.00 | 89 | 1016.7 |
| 20260906051042 | 22 | 77 | 0.0 | 1.6 | 0.00 | 0.00 | 0.00 | 89 | 1016.6 |
| 20260906050055 | 22 | 76 | 0.0 | 4.8 | 0.00 | 0.00 | 0.00 | 89 | 1016.6 |
| 20260906050002 | 22 | 94 | 0.0 | 3.2 | 0.00 | 0.00 | 0.00 | 89 | 1016.7 |
| 20260906045027 | 22 | 130 | 0.0 | 1.6 | 0.00 | 0.00 | 0.00 | 89 | 1016.5 |
| 20260906044602 | 22 | 89 | 0.0 | 3.2 | 0.00 | 0.00 | 0.00 | 89 | 1016.5 |
| 20260906044020 | 22 | 107 | 0.0 | 1.6 | 0.00 | 0.00 | 0.00 | 89 | 1016.4 |
| 20260906043002 | 22 | 100 | 0.0 | 4.8 | 0.00 | 0.00 | 0.00 | 89 | 1016.7 |
| 20260906042950 | 22 | 100 | 0.0 | 0.0 | 0.00 | 0.00 | 0.00 | 89 | 1016.6 |
| 20260906041926 | 22 | 80 | 0.0 | 1.6 | 0.00 | 0.00 | 0.00 | 89 | 1016.4 |
| 20260906041602 | 22 | 102 | 0.0 | 3.2 | 0.00 | 0.00 | 0.00 | 89 | 1016.5 |
| 20260906040854 | 22 | 114 | 0.0 | 0.0 | 0.00 | 0.00 | 0.00 | 89 | 1016.4 |
| 20260906040106 | 22 | 114 | 0.0 | 3.2 | 0.00 | 0.00 | 0.00 | 89 | 1016.4 |
| 20260906035902 | 22 | 113 | 0.0 | 0.0 | 0.00 | 0.00 | 0.00 | 89 | 1016.4 |
| 20260906034850 | 22 | 111 | 0.0 | 0.0 | 0.00 | 0.00 | 0.00 | 89 | 1016.5 |
| 20260906034503 | 22 | 109 | 0.0 | 1.6 | 0.00 | 0.00 | 0.00 | 89 | 1016.6 |
| 20260906033852 | 22 | 111 | 0.0 | 0.0 | 0.00 | 0.00 | 0.00 | 89 | 1016.6 |
| 20260906033106 | 22 | 113 | 0.0 | 3.2 | 0.00 | 0.00 | 0.00 | 89 | 1016.6 |
| 20260906032840 | 22 | 112 | 0.0 | 0.0 | 0.00 | 0.00 | 0.00 | 89 | 1016.6 |
| 20260906031825 | 22 | 112 | 0.0 | 0.0 | 0.00 | 0.00 | 0.00 | 89 | 1016.4 |
| 20260906031502 | 22 | 112 | 0.0 | 3.2 | 0.00 | 0.00 | 0.00 | 89 | 1016.5 |
| 20260906030843 | 22 | 103 | 0.0 | 0.0 | 0.00 | 0.00 | 0.00 | 89 | 1016.3 |
| 20260906030003 | 22 | 78 | 0.0 | 4.8 | 0.00 | 0.00 | 0.00 | 89 | 1016.4 |
| 20260906024719 | 22 | 138 | 0.0 | 1.6 | 0.00 | 0.00 | 0.00 | 89 | 1016.2 |
| 20260906024613 | 22 | 141 | 0.0 | 1.6 | 0.00 | 0.00 | 0.00 | 89 | 1016.3 |
| 20260906023657 | 22 | 142 | 0.0 | 0.0 | 0.00 | 0.00 | 0.00 | 89 | 1016.2 |
| 20260906023003 | 22 | 143 | 0.0 | 3.2 | 0.00 | 0.00 | 0.00 | 89 | 1016.0 |
| 20260906021606 | 22 | 144 | 0.0 | 3.2 | 0.00 | 0.00 | 0.00 | 88 | 1015.6 |
| 20260906021532 | 23 | 144 | 0.0 | 0.0 | 0.00 | 0.00 | 0.00 | 88 | 1015.6 |
| 20260906020536 | 23 | 150 | 0.0 | 3.2 | 0.00 | 0.00 | 0.00 | 88 | 1015.3 |
| 20260906015527 | 23 | 138 | 0.0 | 1.6 | 0.00 | 0.00 | 0.00 | 88 | 1015.2 |
| 20260906014541 | 23 | 136 | 0.0 | 1.6 | 0.00 | 0.00 | 0.00 | 88 | 1015.2 |
| 20260906014506 | 23 | 128 | 0.0 | 1.6 | 0.00 | 0.00 | 0.00 | 88 | 1015.2 |
| 20260906013546 | 23 | 134 | 0.0 | 0.0 | 0.00 | 0.00 | 0.00 | 88 | 1015.0 |
| 20260906013104 | 23 | 134 | 0.0 | 3.2 | 0.00 | 0.00 | 0.00 | 88 | 1015.0 |
| 20260906011503 | 23 | 126 | 0.0 | 3.2 | 0.00 | 0.00 | 0.00 | 87 | 1014.7 |
| 20260906011433 | 23 | 126 | 0.0 | 0.0 | 0.00 | 0.00 | 0.00 | 87 | 1014.6 |
| 20260906010143 | 23 | 132 | 0.0 | 3.2 | 0.00 | 0.00 | 0.00 | 87 | 1014.7 |
| 20260906005258 | 23 | 136 | 0.0 | 1.6 | 0.00 | 0.00 | 0.00 | 86 | 1014.5 |
| 20260906004617 | 23 | 151 | 0.0 | 4.8 | 0.00 | 0.00 | 0.00 | 86 | 1014.5 |
| 20260906004236 | 23 | 129 | 0.0 | 3.2 | 0.00 | 0.00 | 0.00 | 86 | 1014.3 |
| 20260906003004 | 23 | 115 | 0.0 | 3.2 | 0.00 | 0.00 | 0.00 | 85 | 1014.4 |
| 20260906002117 | 24 | 80 | 0.0 | 1.6 | 0.00 | 0.00 | 0.00 | 85 | 1014.3 |
| 20260906001606 | 24 | 86 | 0.0 | 3.2 | 0.00 | 0.00 | 0.00 | 84 | 1014.5 |
| 20260905235956 | 24 | 57 | 0.0 | 3.2 | 0.00 | 0.00 | 0.00 | 84 | 1014.3 |
| 20260905234948 | 24 | 142 | 0.0 | 1.6 | 0.00 | 0.00 | 0.00 | 84 | 1014.3 |
| 20260905234505 | 24 | 140 | 0.0 | 4.8 | 0.00 | 0.00 | 0.00 | 84 | 1014.3 |
| 20260905233959 | 24 | 121 | 0.0 | 4.8 | 0.00 | 0.00 | 0.00 | 84 | 1014.2 |
| 20260905233102 | 24 | 96 | 1.6 | 4.8 | 0.00 | 0.00 | 0.00 | 83 | 1014.2 |
| 20260905233022 | 25 | 67 | 0.0 | 3.2 | 0.00 | 0.00 | 0.00 | 83 | 1014.2 |
| 20260905232039 | 25 | 111 | 0.0 | 1.6 | 0.00 | 0.00 | 0.00 | 83 | 1014.1 |
| 20260905231508 | 24 | 97 | 0.0 | 6.4 | 0.00 | 0.00 | 0.00 | 83 | 1014.1 |
| 20260905231102 | 25 | 175 | 1.6 | 4.8 | 0.00 | 0.00 | 0.00 | 83 | 1014.0 |
| 20260905230047 | 25 | 129 | 0.0 | 9.7 | 0.00 | 0.00 | 0.00 | 82 | 1013.9 |
| 20260905230002 | 24 | 126 | 1.6 | 8.0 | 0.00 | 0.00 | 0.00 | 82 | 1013.9 |
| 20260905225025 | 25 | 86 | 1.6 | 9.7 | 0.00 | 0.00 | 0.00 | 82 | 1013.6 |
| 20260905224604 | 24 | 53 | 3.2 | 11.3 | 0.00 | 0.00 | 0.00 | 82 | 1013.6 |
| 20260905223950 | 25 | 80 | 1.6 | 8.0 | 0.00 | 0.00 | 0.00 | 83 | 1013.6 |
| 20260905223005 | 24 | 68 | 3.2 | 9.7 | 0.00 | 0.00 | 0.00 | 83 | 1013.6 |
| 20260905221833 | 25 | 71 | 1.6 | 11.3 | 0.00 | 0.00 | 0.00 | 83 | 1013.6 |
| 20260905221603 | 25 | 50 | 4.8 | 12.9 | 0.00 | 0.00 | 0.00 | 83 | 1013.6 |
| 20260905220857 | 25 | 136 | 1.6 | 6.4 | 0.00 | 0.00 | 0.00 | 83 | 1013.5 |
| 20260905220103 | 25 | 91 | 3.2 | 11.3 | 0.00 | 0.00 | 0.00 | 83 | 1013.5 |
| 20260905215900 | 25 | 61 | 1.6 | 11.3 | 0.00 | 0.00 | 0.00 | 83 | 1013.5 |
| 20260905214836 | 25 | 74 | 1.6 | 12.9 | 0.00 | 0.00 | 0.00 | 82 | 1013.4 |
| 20260905214509 | 25 | 100 | 1.6 | 14.5 | 0.00 | 0.00 | 0.00 | 82 | 1013.5 |
| 20260905213809 | 25 | 78 | 1.6 | 12.9 | 0.00 | 0.00 | 0.00 | 82 | 1013.6 |
| 20260905213103 | 25 | 20 | 4.8 | 14.5 | 0.00 | 0.00 | 0.00 | 81 | 1013.9 |
| 20260905211657 | 25 | 18 | 1.6 | 9.7 | 0.00 | 0.00 | 0.00 | 81 | 1013.9 |
| 20260905210710 | 26 | 31 | 1.6 | 9.7 | 0.00 | 0.00 | 0.00 | 81 | 1013.8 |
| 20260905210003 | 26 | 57 | 1.6 | 6.4 | 0.00 | 0.00 | 0.00 | 81 | 1014.1 |
| 20260905204614 | 26 | 71 | 1.6 | 9.7 | 0.00 | 0.00 | 0.00 | 81 | 1014.1 |
| 20260905204502 | 26 | 87 | 1.6 | 9.7 | 0.00 | 0.00 | 0.00 | 81 | 1014.2 |
| 20260905203547 | 26 | 61 | 1.6 | 9.7 | 0.00 | 0.00 | 0.00 | 81 | 1014.4 |
| 20260905203103 | 26 | 92 | 1.6 | 9.7 | 0.00 | 0.00 | 0.00 | 81 | 1014.5 |
| 20260905202605 | 26 | 113 | 1.6 | 6.4 | 0.00 | 0.00 | 0.00 | 82 | 1014.4 |
| 20260905201503 | 25 | 111 | 1.6 | 8.0 | 0.00 | 0.00 | 0.00 | 82 | 1014.7 |
| 20260905200003 | 25 | 107 | 0.0 | 6.4 | 0.00 | 0.00 | 0.00 | 83 | 1014.9 |
| 20260905195334 | 25 | 100 | 0.0 | 0.0 | 0.00 | 0.00 | 0.00 | 83 | 1014.8 |
| 20260905194603 | 25 | 112 | 0.0 | 4.8 | 0.00 | 0.00 | 0.00 | 83 | 1015.0 |
| 20260905194338 | 25 | 112 | 0.0 | 0.0 | 0.00 | 0.00 | 0.00 | 83 | 1015.0 |
| 20260905193358 | 25 | 129 | 0.0 | 4.8 | 0.00 | 0.00 | 0.00 | 84 | 1015.1 |
| 20260905193013 | 25 | 123 | 0.0 | 6.4 | 0.00 | 0.00 | 0.00 | 84 | 1015.2 |
| 20260905191602 | 25 | 197 | 0.0 | 4.8 | 0.00 | 0.00 | 0.00 | 84 | 1015.2 |
| 20260905191250 | 25 | 170 | 0.0 | 4.8 | 0.00 | 0.00 | 0.00 | 85 | 1015.3 |
| 20260905190253 | 25 | 140 | 0.0 | 8.0 | 0.00 | 0.00 | 0.00 | 85 | 1015.2 |
| 20260905185227 | 25 | 138 | 1.6 | 8.0 | 0.00 | 0.00 | 0.00 | 86 | 1015.2 |
| 20260905184503 | 24 | 136 | 3.2 | 9.7 | 0.00 | 0.00 | 0.00 | 87 | 1015.2 |
| 20260905183105 | 24 | 98 | 0.0 | 6.4 | 0.00 | 0.00 | 0.00 | 88 | 1015.3 |
| 20260905183103 | 23 | 98 | 1.6 | 8.0 | 0.00 | 0.00 | 0.00 | 88 | 1015.4 |
| 20260905182041 | 24 | 103 | 0.0 | 0.0 | 0.00 | 0.00 | 0.00 | 88 | 1015.6 |
| 20260905181502 | 23 | 103 | 0.0 | 3.2 | 0.00 | 0.00 | 0.00 | 88 | 1015.7 |
| 20260905181040 | 23 | 103 | 0.0 | 1.6 | 0.00 | 0.00 | 0.00 | 88 | 1015.7 |
| 20260905180043 | 23 | 134 | 0.0 | 3.2 | 0.00 | 0.00 | 0.00 | 89 | 1015.8 |
| 20260905175107 | 23 | 113 | 0.0 | 1.6 | 0.00 | 0.00 | 0.00 | 89 | 1015.9 |
| 20260905174502 | 23 | 134 | 0.0 | 1.6 | 0.00 | 0.00 | 0.00 | 90 | 1016.0 |
| 20260905174034 | 23 | 134 | 0.0 | 0.0 | 0.00 | 0.00 | 0.00 | 90 | 1015.7 |
| 20260905173103 | 23 | 136 | 1.6 | 6.4 | 0.00 | 0.00 | 0.00 | 90 | 1015.9 |
| 20260905173034 | 23 | 130 | 0.0 | 4.8 | 0.00 | 0.00 | 0.00 | 90 | 1015.8 |
| 20260905172015 | 23 | 98 | 0.0 | 0.0 | 0.00 | 0.00 | 0.00 | 90 | 1016.1 |
| 20260905171504 | 23 | 98 | 0.0 | 1.6 | 0.00 | 0.00 | 0.00 | 91 | 1016.3 |
| 20260905170957 | 23 | 97 | 0.0 | 0.0 | 0.00 | 0.00 | 0.00 | 91 | 1016.1 |
| 20260905170004 | 23 | 92 | 0.0 | 0.0 | 0.00 | 0.00 | 0.00 | 91 | 1016.0 |
| 20260905170002 | 23 | 92 | 0.0 | 4.8 | 0.00 | 0.00 | 0.00 | 91 | 1016.1 |
| 20260905165028 | 23 | 123 | 0.0 | 4.8 | 0.00 | 0.00 | 0.00 | 91 | 1015.9 |
| 20260905164606 | 22 | 76 | 0.0 | 4.8 | 0.00 | 0.00 | 0.00 | 91 | 1015.8 |
| 20260905164016 | 23 | 112 | 1.6 | 4.8 | 0.00 | 0.00 | 0.00 | 92 | 1015.8 |
| 20260905163103 | 22 | 136 | 1.6 | 4.8 | 0.00 | 0.00 | 0.00 | 92 | 1015.6 |
| 20260905163000 | 22 | 131 | 0.0 | 3.2 | 0.00 | 0.00 | 0.00 | 92 | 1015.7 |
| 20260905161933 | 22 | 64 | 0.0 | 1.6 | 0.00 | 0.00 | 0.00 | 92 | 1015.6 |
| 20260905161503 | 22 | 85 | 0.0 | 3.2 | 0.00 | 0.00 | 0.00 | 92 | 1015.8 |
| 20260905160951 | 22 | 87 | 0.0 | 6.4 | 0.00 | 0.00 | 0.00 | 92 | 1015.8 |
| 20260905160002 | 22 | 98 | 0.0 | 4.8 | 0.00 | 0.00 | 0.00 | 93 | 1015.8 |
| 20260905155917 | 22 | 111 | 0.0 | 3.2 | 0.00 | 0.00 | 0.00 | 93 | 1015.8 |
| 20260905154926 | 22 | 323 | 0.0 | 3.2 | 0.00 | 0.00 | 0.00 | 93 | 1015.6 |
| 20260905154502 | 22 | 136 | 1.6 | 8.0 | 0.00 | 0.00 | 0.00 | 94 | 1015.6 |
| 20260905153851 | 22 | 24 | 0.0 | 4.8 | 0.00 | 0.00 | 0.00 | 94 | 1015.5 |
| 20260905153104 | 22 | 61 | 1.6 | 6.4 | 0.00 | 0.00 | 0.00 | 94 | 1015.5 |
| 20260905152820 | 22 | 112 | 0.0 | 4.8 | 0.00 | 0.00 | 0.00 | 94 | 1015.4 |
| 20260905151820 | 22 | 69 | 0.0 | 3.2 | 0.00 | 0.00 | 0.00 | 95 | 1015.4 |
| 20260905151506 | 22 | 71 | 1.6 | 4.8 | 0.00 | 0.00 | 0.00 | 95 | 1015.6 |
| 20260905150826 | 22 | 31 | 0.0 | 3.2 | 0.00 | 0.00 | 0.00 | 96 | 1015.4 |
| 20260905150002 | 21 | 50 | 0.0 | 4.8 | 0.00 | 0.00 | 0.00 | 96 | 1015.1 |
| 20260905145820 | 22 | 50 | 0.0 | 3.2 | 0.00 | 0.00 | 0.00 | 96 | 1015.1 |